Вернуться в каталог

SL-8 DEB

АктивенLEO
NORAD 21170·DEBRIS·🇷🇺 Russia

Запущен Feb 12, 1991 с Plesetsk Cosmodrome

Loading…

Ближайшие Пролёты (ближайшие 24 часа)

TLE

СвежийSource: Space-Track

Эпоха: Sep 14, 2026, 14:15 UTC

1 21170U 91009AH  26257.59395052  .00000191  00000-0  20949-2 0  9997
2 21170  74.1159   2.4053 0151906 322.1712  50.6034 12.12969933573158

Отслеживайте SL-8 DEB в реальном времени с AllMySat

Download on the App Store